Location: LDNL
(36.4545°S, 141.6685°E)
Time: 22:27:16
(UTC+11:00)

ISS - Pass Details

Date: 13 December 2021
Orbit: 413 x 422 km, 51.6° (Epoch: 22 January)

Event Time Altitude Azimuth Distance (km) Brightness Sun altitude
Rises 21:31:11 0° 331° (NNW) 2,350 0.0 -8.4°
Reaches altitude 10° 21:33:22 10° 340° (NNW) 1,493 -1.1 -8.7°
Maximum altitude 21:36:28 35° 47° (NE) 696 -3.2 -9.2°
Drops below altitude 10° 21:39:35 10° 114° (ESE) 1,508 -1.2 -9.7°
Sets 21:41:48 0° 123° (ESE) 2,378 -0.1 -10.1°
